Location: Arbon
(43.0005°N, 0.7472°E)
Time: 01:18:19
(UTC+00:00)

Cosmos 1953 - Pass Details

Date: 07 August 2020
Orbit: 538 x 558 km, 82.5° (Epoch: 19 September)

Event Time Altitude Azimuth Distance (km) Brightness Sun altitude
Exits shadow 03:35:54 18° 205° (SSW) 1,381 3.8 -13.2°
Maximum altitude 03:38:44 58° 280° (W) 647 2.4 -12.8°
Drops below altitude 10° 03:42:44 10° 0° (N) 1,842 5.5 -12.2°
Sets 03:44:57 0° 5° (N) 2,744 6.5 -11.9°
